Temp
6 7 7 6 6 6 6 7 7 7 7 7 7 7 8 8 8 8 9 9 9 9 9 10 10 10 10 10 9 9 9 9 9 9 9 9 9 9 9 9 10 9 9 9 9 9 10 9 10
7 6 6 6 6 5 6 7 6 7 6 6 7 7 7 8 8 8 8 8 9 9 9 9 9 9 10 10 10 9 9 9 8 8 9 9 9 9 9 9 9 9 9 10 10 10 10 10 10
6 6 6 6 6 6 6 6 6 6 6 6 6 7 7 8 8 8 8 8 8 8 8 8 8 8 8 8 8 9 8 8 8 8 8 9 9 9 9 9 9 9 9 10 10 10 10 10 10
6 6 6 6 7 6 6 6 6 5 5 5 6 6 7 7 8 8 8 8 8 8 8 8 8 8 8 8 7 8 8 8 8 8 8 8 9 9 9 9 9 9 9 9 9 9 9 10 10
6 6 6 6 7 7 6 6 6 5 5 6 6 6 6 6 7 7 7 8 8 7 7 7 7 7 7 7 7 7 7 7 8 8 8 8 8 9 8 9 9 8 9 9 9 9 9 9 10
6 6 6 6 7 6 6 6 6 5 6 6 6 6 6 6 6 7 7 7 7 7 7 7 7 7 7 7 7 7 7 7 7 7 7 8 8 8 8 8 9 9 9 9 9 9 9 9 10
6 5 6 6 7 6 6 6 6 5 5 5 5 6 6 6 6 7 7 7 7 7 7 7 7 7 7 7 6 6 6 6 7 7 7 7 7 8 8 8 8 9 9 9 9 9 9 9 10
6 5 6 6 7 7 7 6 6 5 5 5 5 5 6 6 6 6 6 6 6 6 7 6 6 6 6 6 6 6 6 6 6 7 7 7 7 7 8 8 8 8 8 8 9 9 9 9 9
5 5 6 6 6 6 6 6 6 6 5 5 6 5 5 6 6 6 6 6 6 6 6 6 6 6 6 6 6 6 6 6 6 6 7 6 7 7 7 7 8 8 8 8 9 9 9 9 9
5 5 6 6 6 5 5 5 5 5 6 6 5 6 5 5 6 6 6 6 6 6 6 6 6 6 6 6 5 5 5 5 5 5 6 7 6 6 7 7 7 7 8 8 8 9 9 9 9
5 6 5 5 5 5 5 5 4 5 6 6 5 6 6 6 6 6 6 6 6 6 6 6 6 6 6 6 5 5 5 5 5 5 6 5 6 6 6 7 7 7 8 8 8 9 9 9 9
5 5 5 5 5 4 5 5 6 5 7 5 5 6 6 5 5 5 6 6 6 6 6 6 6 6 6 6 6 5 5 5 5 5 5 5 5 6 6 6 6 7 7 7 8 8 8 9 9
4 5 5 5 5 5 4 5 5 6 6 4 5 5 5 5 5 5 5 6 6 6 6 6 6 6 6 5 5 5 5 5 4 5 5 5 5 5 5 5 6 6 7 7 7 8 8 8 8
4 4 4 4 4 4 4 5 4 6 5 4 5 5 5 5 5 5 5 5 5 5 5 5 5 5 5 5 5 5 5 5 4 4 5 5 5 4 5 5 5 5 6 6 7 7 7 8 8
3 3 3 4 4 4 3 4 5 6 4 4 4 4 4 5 5 5 5 5 5 5 5 5 5 5 5 5 5 5 5 4 4 4 4 4 4 4 3 4 5 5 5 6 6 7 7 7 7
1 1 1 2 2 2 2 4 4 4 3 3 3 2 3 3 4 5 5 4 4 4 5 5 5 5 5 5 5 5 5 5 4 4 4 4 4 4 3 4 4 4 5 5 5 6 7 7 7
-0 0 0 1 1 1 1 3 2 3 2 3 3 3 3 3 4 4 4 3 4 4 4 5 4 4 4 4 4 4 4 4 4 4 4 4 4 3 4 4 4 4 4 4 5 6 6 6 6
-0 -1 -1 -1 -1 -0 0 2 1 2 2 3 3 3 2 3 3 4 3 3 4 4 4 4 4 4 4 3 3 3 3 4 4 4 4 4 3 4 4 4 4 4 4 4 4 5 5 6 5
-3 -3 -3 -2 -1 -1 0 0 1 2 3 3 3 3 3 3 3 3 3 3 3 4 4 3 3 2 2 2 2 3 3 3 3 3 3 3 3 3 2 4 3 3 3 4 4 4 5 5 5
-3 -4 -3 -2 -1 -2 -1 -0 1 2 3 4 3 3 3 2 2 2 3 3 3 3 3 3 2 2 2 1 1 2 2 2 2 2 2 2 3 2 2 2 2 3 3 2 4 4 5 5 5
-3 -3 -2 -3 -2 -2 -2 -0 1 1 2 3 2 2 1 1 1 2 2 2 2 2 2 2 2 2 2 1 1 1 2 1 1 1 1 2 2 2 1 1 2 0 3 1 3 4 4 4 5
-3 -2 -2 -2 -3 -3 -2 -4 -1 0 1 1 0 -0 -0 0 1 2 2 2 2 2 2 2 1 1 1 1 1 1 1 1 0 -0 -0 -0 1 1 1 1 1 1 -0 -1 1 2 3 4 4
-3 -3 -3 -3 -3 -3 -3 -3 -2 -1 -1 -1 -1 -0 -0 0 1 1 2 2 2 2 1 1 1 1 1 1 1 0 1 0 -0 -1 -0 0 0 1 1 2 2 3 1 -1 -0 1 2 3 3
-4 -3 -4 -4 -4 -4 -3 -3 -3 -2 -2 -2 -2 -2 -1 -0 0 1 1 1 1 1 1 1 1 1 1 0 0 0 0 -0 -1 -1 -0 0 0 1 2 3 3 2 0 -1 -1 0 1 2 3
-4 -4 -4 -7 -5 -5 -3 -4 -6 -5 -4 -4 -4 -4 -3 -2 -1 -0 -0 1 1 1 1 1 1 1 1 1 0 0 0 -0 -1 -0 -1 -0 -0 -0 0 0 -0 -0 -1 0 -2 -0 0 1 2
-5 -4 -5 -5 -6 -4 -4 -5 -6 -6 -6 -5 -5 -4 -4 -4 -3 -2 -1 -1 -0 1 1 1 1 1 0 0 1 1 0 -0 -1 -1 -1 -1 -2 -1 -1 -1 -1 -1 -1 1 -2 -1 -1 -0 1
-5 -5 -5 -6 -6 -6 -4 -6 -7 -6 -6 -6 -6 -5 -5 -5 -4 -3 -3 -2 -1 0 1 0 0 0 0 -0 -0 0 0 -0 -1 -1 -2 -2 -1 -1 -1 -1 -1 -1 -2 0 -2 -2 -2 -1 -0
-7 -7 -6 -5 -6 -5 -6 -5 -6 -7 -7 -7 -7 -7 -7 -7 -6 -6 -5 -3 -2 -1 -1 -1 -1 -0 -1 -1 -1 -1 -1 -2 -2 -1 -2 -2 -2 -2 -2 -2 -2 -1 -1 -1 -3 -3 -3 -1 0
-8 -9 -8 -7 -7 -6 -6 -7 -9 -8 -8 -8 -8 -7 -7 -7 -7 -7 -7 -6 -3 -2 -2 -2 -2 -2 -2 -2 -2 -2 -2 -2 -2 -2 -2 -2 -2 -2 -2 -2 -2 -2 -1 -2 -3 -3 -2 -1 -0
-10 -11 -11 -11 -11 -10 -9 -9 -9 -9 -9 -10 -10 -9 -9 -9 -8 -8 -7 -7 -6 -5 -3 -3 -3 -2 -2 -3 -3 -4 -3 -2 -2 -2 -2 -2 -2 -2 -2 -2 -1 -2 -2 -2 -3 -1 -2 -1 -1
Height
3103 3103 3104 3106 3111 3106 3103 3105 3105 3106 3108 3109 3110 3111 3112 3114 3116 3120 3117 3119 3121 3122 3124 3125 3126 3127 3128 3129 3130 3131 3132 3134 3136 3138 3139 3141 3141 3142 3143 3144 3146 3147 3149 3151 3152 3153 3153 3154 3155
3103 3103 3104 3104 3105 3103 3102 3102 3103 3105 3106 3108 3109 3109 3110 3112 3113 3115 3116 3117 3119 3121 3122 3123 3124 3125 3126 3128 3129 3131 3132 3133 3135 3137 3138 3140 3141 3142 3142 3144 3146 3147 3149 3150 3152 3153 3153 3154 3155
3102 3102 3104 3103 3101 3100 3101 3100 3102 3103 3105 3106 3107 3107 3108 3109 3110 3112 3115 3117 3118 3119 3121 3122 3123 3123 3125 3126 3127 3129 3131 3132 3133 3136 3137 3138 3140 3141 3143 3144 3145 3147 3149 3150 3152 3153 3154 3155 3156
3101 3102 3103 3100 3099 3099 3100 3100 3100 3101 3103 3104 3104 3106 3106 3106 3108 3109 3111 3113 3115 3117 3118 3119 3121 3121 3123 3125 3126 3127 3129 3131 3132 3134 3136 3137 3138 3140 3142 3144 3145 3146 3148 3150 3152 3153 3154 3155 3156
3101 3100 3099 3097 3097 3097 3098 3098 3098 3099 3100 3101 3102 3102 3102 3104 3105 3105 3107 3109 3111 3112 3114 3116 3118 3119 3121 3122 3124 3125 3127 3129 3130 3132 3134 3135 3137 3139 3141 3143 3145 3146 3147 3149 3151 3152 3154 3155 3156
3099 3099 3097 3095 3095 3095 3095 3094 3094 3095 3097 3098 3099 3098 3099 3100 3101 3101 3102 3104 3106 3108 3109 3111 3113 3116 3118 3120 3121 3123 3125 3126 3128 3130 3132 3134 3136 3137 3140 3142 3143 3145 3147 3148 3150 3151 3153 3153 3155
3098 3097 3095 3094 3093 3092 3092 3092 3091 3092 3093 3094 3094 3093 3094 3095 3095 3095 3096 3097 3100 3102 3104 3106 3108 3110 3114 3116 3118 3120 3122 3124 3126 3128 3130 3132 3133 3135 3137 3140 3142 3143 3145 3147 3149 3150 3151 3152 3154
3095 3095 3092 3092 3090 3089 3089 3088 3089 3089 3089 3089 3090 3088 3090 3090 3088 3089 3090 3091 3093 3095 3097 3100 3102 3104 3107 3111 3113 3116 3118 3120 3123 3125 3128 3129 3131 3133 3135 3137 3140 3142 3143 3146 3148 3149 3150 3152 3153
3092 3091 3089 3089 3088 3087 3087 3086 3085 3085 3084 3084 3085 3086 3085 3084 3083 3083 3085 3086 3087 3089 3091 3093 3096 3099 3101 3104 3108 3111 3114 3116 3118 3120 3124 3127 3129 3131 3132 3134 3137 3140 3141 3144 3146 3148 3149 3151 3153
3089 3088 3086 3085 3084 3083 3082 3082 3082 3081 3079 3079 3079 3081 3079 3077 3078 3079 3080 3082 3083 3084 3085 3086 3089 3093 3095 3098 3101 3105 3109 3111 3114 3117 3119 3123 3127 3128 3130 3132 3134 3137 3139 3141 3144 3147 3148 3150 3152
3081 3080 3082 3082 3080 3078 3078 3076 3076 3075 3074 3075 3073 3074 3073 3072 3072 3073 3075 3076 3077 3078 3079 3081 3083 3086 3089 3092 3095 3098 3102 3105 3109 3112 3115 3119 3122 3124 3127 3129 3132 3134 3137 3139 3141 3145 3147 3149 3151
3076 3077 3075 3075 3075 3072 3072 3069 3069 3067 3071 3069 3068 3069 3069 3068 3067 3068 3069 3071 3071 3072 3074 3075 3077 3079 3083 3086 3089 3092 3095 3099 3103 3107 3110 3114 3117 3120 3123 3126 3129 3131 3133 3137 3139 3143 3146 3147 3149
3068 3069 3068 3068 3067 3066 3064 3063 3062 3058 3065 3062 3063 3063 3064 3064 3064 3063 3063 3065 3066 3067 3069 3070 3072 3074 3076 3079 3082 3085 3088 3092 3097 3101 3105 3108 3112 3115 3118 3122 3125 3127 3130 3133 3136 3140 3143 3145 3147
3062 3061 3061 3059 3059 3058 3057 3057 3053 3056 3057 3056 3057 3058 3058 3057 3058 3058 3058 3060 3061 3062 3063 3064 3065 3068 3070 3072 3075 3079 3082 3086 3090 3094 3099 3102 3106 3110 3113 3117 3120 3123 3125 3129 3132 3136 3139 3142 3144
3057 3054 3051 3050 3052 3050 3051 3045 3043 3053 3050 3050 3051 3051 3051 3051 3051 3051 3052 3053 3055 3056 3057 3058 3059 3061 3063 3065 3068 3071 3074 3078 3083 3087 3091 3096 3100 3104 3108 3111 3114 3119 3121 3124 3127 3130 3134 3137 3140
3052 3048 3041 3043 3045 3045 3043 3036 3042 3043 3044 3044 3044 3045 3044 3044 3044 3044 3045 3047 3049 3049 3051 3052 3053 3055 3057 3059 3060 3064 3068 3072 3076 3080 3084 3089 3093 3097 3101 3105 3109 3113 3115 3118 3121 3125 3130 3134 3136
3044 3040 3036 3035 3037 3037 3036 3033 3036 3037 3037 3036 3037 3037 3036 3038 3038 3038 3039 3040 3042 3043 3044 3045 3046 3048 3050 3052 3055 3057 3060 3064 3068 3072 3076 3081 3085 3091 3094 3098 3102 3107 3108 3111 3115 3120 3124 3129 3133
3039 3035 3032 3031 3034 3032 3029 3024 3027 3032 3031 3028 3028 3029 3029 3030 3031 3032 3033 3034 3036 3036 3037 3038 3040 3041 3043 3044 3047 3049 3052 3056 3060 3064 3068 3073 3077 3082 3085 3090 3094 3099 3100 3103 3107 3113 3119 3123 3127
3035 3032 3028 3025 3030 3029 3024 3020 3019 3024 3023 3020 3019 3021 3022 3023 3024 3025 3027 3027 3029 3030 3031 3032 3033 3034 3035 3037 3039 3041 3044 3049 3052 3056 3060 3064 3069 3073 3076 3079 3085 3090 3092 3097 3102 3107 3111 3115 3118
3032 3028 3021 3019 3023 3023 3020 3012 3012 3014 3015 3012 3011 3012 3013 3016 3018 3020 3020 3022 3022 3023 3025 3026 3027 3028 3029 3031 3033 3035 3037 3040 3043 3046 3050 3054 3060 3062 3065 3068 3063 3076 3086 3088 3092 3097 3103 3106 3113
3027 3024 3020 3018 3018 3016 3014 3005 3006 3006 3006 3005 3004 3004 3006 3010 3013 3015 3015 3016 3017 3018 3019 3020 3021 3022 3023 3025 3027 3029 3031 3032 3035 3038 3042 3047 3051 3054 3056 3063 3062 3060 3075 3080 3086 3090 3095 3101 3106
3019 3019 3016 3013 3014 3011 3011 3004 3003 3003 3002 3002 3002 3001 3005 3007 3009 3010 3010 3011 3012 3013 3014 3015 3016 3017 3018 3019 3021 3023 3025 3026 3030 3033 3036 3039 3041 3044 3048 3051 3058 3059 3058 3070 3076 3082 3089 3096 3099
3012 3012 3009 3007 3005 3005 3005 3007 2996 2997 2997 2998 2999 3000 3001 3003 3004 3004 3005 3006 3007 3008 3009 3010 3010 3011 3012 3013 3015 3016 3018 3020 3022 3025 3028 3032 3034 3035 3038 3041 3042 3044 3045 3062 3066 3073 3079 3088 3094
3008 3006 3003 3000 3000 2997 2995 2999 2992 2992 2993 2992 2993 2995 2997 2999 2999 2999 2999 3001 3002 3003 3004 3005 3005 3005 3006 3007 3008 3009 3010 3013 3015 3018 3021 3023 3024 3025 3025 3027 3031 3036 3042 3048 3054 3063 3072 3081 3087
3004 3003 2999 2999 2995 2988 2985 2989 2987 2986 2985 2987 2987 2989 2991 2993 2995 2994 2994 2995 2998 2999 2999 3000 3000 3000 3000 3001 3001 3002 3004 3006 3009 3010 3012 3014 3015 3015 3015 3014 3017 3023 3030 3040 3044 3053 3062 3072 3078
3001 3002 2999 2992 2989 2985 2982 2983 2982 2982 2985 2984 2984 2986 2989 2990 2990 2990 2990 2991 2993 2995 2995 2994 2994 2995 2995 2994 2995 2996 2997 2999 3001 3003 3004 3005 3007 3008 3009 3010 3011 3015 3019 3027 3035 3044 3054 3064 3071
2998 2998 2996 2990 2985 2984 2981 2981 2983 2981 2980 2982 2984 2983 2985 2986 2987 2987 2986 2988 2988 2990 2989 2989 2989 2989 2989 2989 2989 2988 2990 2991 2993 2996 2997 2997 2998 3000 3003 3003 3005 3007 3011 3016 3027 3035 3045 3053 3061
2996 2994 2992 2988 2983 2979 2975 2977 2978 2979 2978 2978 2980 2981 2983 2981 2981 2983 2984 2984 2984 2985 2984 2983 2983 2983 2984 2984 2983 2983 2983 2983 2984 2986 2988 2990 2990 2991 2991 2993 2997 3001 3005 3010 3021 3028 3035 3043 3051
2986 2986 2987 2987 2984 2978 2975 2978 2979 2976 2976 2977 2978 2979 2980 2980 2979 2977 2979 2981 2980 2980 2980 2979 2978 2978 2978 2978 2978 2978 2979 2979 2979 2978 2979 2978 2979 2982 2983 2985 2988 2991 2996 3002 3009 3016 3025 3034 3041
2984 2985 2984 2986 2986 2984 2981 2980 2978 2977 2977 2977 2977 2977 2977 2978 2978 2976 2975 2974 2977 2977 2976 2975 2974 2974 2973 2973 2973 2972 2973 2974 2974 2974 2971 2970 2971 2972 2975 2977 2979 2982 2987 2991 2999 3006 3014 3023 3032
Wind_Speed
5 4 5 10 9 10 12 11 15 8 7 8 9 11 16 18 9 6 6 13 15 15 12 9 7 5 4 5 6 7 7 7 7 6 6 7 8 9 11 12 11 10 9 8 7 6 5 4 3
5 6 6 8 9 11 9 12 9 11 11 8 9 10 12 16 14 12 8 13 15 13 11 9 7 8 9 9 9 9 9 8 8 7 7 7 9 9 10 13 12 10 9 8 7 6 5 4 5
4 5 6 5 12 13 4 8 9 8 10 10 12 14 14 15 17 14 12 12 13 11 9 9 8 7 8 11 12 12 12 11 10 9 8 9 9 10 10 13 13 11 10 9 8 7 6 6 8
4 6 8 12 14 10 11 13 11 11 11 12 14 13 18 18 19 20 18 16 17 17 16 13 9 9 8 9 13 13 14 13 12 11 10 10 10 10 11 13 13 12 11 10 8 7 7 8 10
5 7 11 13 14 14 12 16 19 15 15 15 15 17 17 17 21 23 23 22 21 20 20 19 17 13 11 10 11 13 14 15 14 13 11 11 12 12 13 14 14 13 12 11 10 9 8 9 10
6 7 11 15 15 14 15 20 22 22 21 20 21 21 22 21 23 25 26 26 26 25 25 24 24 21 18 15 12 12 15 16 15 14 14 13 13 14 15 15 15 15 13 12 11 10 9 10 11
9 11 16 17 19 17 15 20 23 22 21 20 22 24 26 25 26 29 32 33 33 32 31 30 29 28 25 21 17 16 15 17 18 18 16 16 14 15 15 17 16 16 14 13 12 10 10 11 11
13 13 18 18 18 18 15 18 22 23 23 22 22 21 20 19 22 27 27 29 30 30 29 27 27 30 32 27 23 19 21 20 20 22 19 18 17 16 17 18 18 18 16 14 13 12 12 12 12
15 16 20 20 20 18 16 16 19 21 23 22 23 21 22 25 26 26 24 26 26 26 26 26 26 28 30 33 30 24 21 22 23 24 23 22 21 18 18 19 19 19 19 16 16 14 14 13 14
19 21 21 19 19 18 19 20 20 22 23 23 20 16 23 25 25 25 25 25 25 25 25 27 26 25 28 31 32 31 27 24 25 25 24 24 23 22 21 22 21 21 21 19 18 17 15 14 14
24 24 22 20 21 24 24 26 26 26 24 16 17 18 20 21 23 23 22 21 22 24 25 26 26 26 27 29 31 33 32 30 28 26 26 25 26 26 24 23 23 22 23 22 21 19 18 17 16
28 24 24 23 24 28 28 29 28 30 20 20 21 19 19 19 19 20 20 21 22 24 24 25 26 27 27 29 31 32 36 34 34 30 27 29 27 28 27 25 24 23 25 24 23 20 19 19 18
29 26 27 28 29 29 29 30 30 34 21 21 22 19 19 21 21 21 22 20 21 23 23 25 26 27 27 29 31 33 34 36 36 34 31 29 29 30 30 28 26 25 26 25 25 22 21 20 20
32 33 32 34 33 34 35 31 33 28 18 18 21 20 22 25 23 24 25 21 20 20 22 25 28 27 28 29 29 32 35 36 38 38 36 31 31 30 31 31 29 27 27 27 26 25 23 22 22
32 37 37 36 32 31 33 38 38 16 20 17 17 20 23 27 25 24 24 25 22 20 21 26 27 30 31 30 31 32 34 37 37 39 38 37 33 35 33 34 32 27 28 28 30 29 27 25 24
37 40 43 35 28 25 26 35 19 19 20 16 13 19 25 27 26 25 23 21 20 20 20 23 27 29 31 33 34 34 34 36 38 40 41 41 36 33 37 37 35 30 31 31 33 32 30 28 27
34 35 39 38 26 21 23 31 19 19 19 24 20 20 25 27 26 25 22 19 19 20 21 24 26 28 29 31 34 36 35 34 38 42 43 43 41 38 32 38 39 35 35 34 35 34 33 30 29
28 26 28 22 10 16 20 34 30 25 29 28 24 20 23 26 25 24 21 20 19 19 20 22 26 28 28 28 30 34 36 35 36 39 43 43 44 43 42 47 41 40 39 39 38 36 35 32 32
25 28 33 36 29 29 31 34 34 26 26 30 29 24 26 27 26 22 19 19 18 19 19 21 24 26 25 26 27 30 32 32 35 37 40 44 45 47 52 50 49 44 42 39 38 37 38 38 37
21 25 32 33 18 15 27 34 30 24 24 28 29 24 24 25 23 19 17 16 15 15 17 20 23 25 26 27 26 29 31 32 34 36 38 43 45 45 49 47 52 48 43 41 42 41 41 42 38
22 24 29 30 28 28 27 33 24 12 12 19 19 18 20 21 20 17 15 14 14 14 14 17 21 24 25 26 26 27 32 33 33 34 34 38 41 44 37 47 56 49 49 42 42 43 43 42 41
34 31 25 26 23 19 8 7 16 11 11 14 11 14 17 19 19 17 15 14 14 15 15 14 16 19 24 26 26 26 30 32 30 29 33 34 36 42 48 46 47 66 44 45 43 42 43 41 42
27 28 23 21 21 20 21 12 16 14 18 18 19 19 19 19 19 18 17 14 13 13 13 14 15 15 18 23 24 25 29 32 30 31 34 36 39 40 44 44 49 56 51 47 44 44 45 43 41
23 21 22 21 20 11 28 20 4 14 16 24 25 23 21 20 18 17 15 12 13 13 13 12 12 14 15 17 21 23 26 31 30 31 33 35 36 38 42 47 49 51 54 51 47 45 45 44 42
5 12 5 3 5 6 10 18 5 6 15 23 23 20 19 19 17 16 13 10 5 6 11 14 13 13 12 16 20 22 24 31 31 32 32 33 31 29 31 42 49 43 34 50 48 48 47 46 44
18 17 10 5 3 1 4 4 10 16 20 22 22 19 16 15 14 12 9 8 8 11 9 7 10 16 15 14 16 22 24 30 34 34 35 35 35 29 26 25 25 41 23 39 57 49 47 46 44
12 17 19 13 12 3 4 4 12 21 26 29 23 19 17 14 10 10 9 5 4 4 5 5 8 11 15 17 17 19 22 29 37 36 35 33 34 38 36 36 33 36 32 40 59 49 48 48 46
14 19 10 7 3 3 5 5 4 22 23 25 27 23 12 13 13 9 8 5 4 4 4 5 7 10 15 17 17 20 24 25 26 33 35 35 35 42 37 42 38 43 33 48 51 44 50 48 46
26 13 8 5 6 3 3 5 6 10 13 14 12 15 14 10 8 10 9 6 2 8 7 7 10 12 14 17 17 20 23 24 25 28 37 47 35 28 31 32 29 42 46 47 59 52 48 47 46
10 12 8 7 8 7 5 3 1 4 5 7 14 16 11 10 11 9 2 4 7 6 7 9 10 13 16 17 20 20 20 21 24 28 28 28 33 23 29 26 22 29 45 53 60 55 52 51 49
Wind_Direction
269 249 225 200 198 231 240 239 239 235 212 220 213 223 230 222 203 206 205 217 219 218 226 219 219 229 236 234 224 215 209 216 225 238 251 248 231 218 211 213 189 187 192 200 205 212 215 221 203
269 247 228 213 235 238 254 245 233 224 223 229 224 227 221 222 225 235 209 197 204 209 212 216 223 230 245 245 243 232 223 220 224 239 239 242 247 234 221 200 201 201 202 207 210 215 218 200 178
285 258 238 236 245 250 251 223 198 202 203 208 219 231 232 233 233 233 216 210 209 212 218 223 232 235 231 236 232 231 230 227 221 228 242 236 246 250 223 204 203 205 209 210 210 207 204 192 172
287 258 248 249 254 265 246 222 204 199 202 207 223 234 235 235 243 245 247 242 238 236 239 239 235 240 238 236 240 235 232 236 230 228 230 239 235 242 224 218 216 209 211 216 211 202 192 188 176
293 271 250 262 270 272 253 232 231 226 226 223 227 234 243 242 243 250 254 254 252 252 249 248 247 240 238 234 236 240 238 239 234 230 229 238 237 235 227 222 226 221 215 215 209 199 190 187 180
296 284 272 276 282 275 251 239 239 242 242 242 245 248 249 253 253 252 252 253 253 253 253 251 248 244 240 239 234 240 239 238 227 229 230 237 240 233 231 227 227 226 223 218 210 198 190 186 187
295 289 281 284 286 277 265 250 247 252 255 254 257 256 253 255 257 256 254 252 254 255 254 254 251 244 242 241 239 237 237 242 242 239 237 236 237 237 230 230 230 226 227 225 215 202 195 189 188
290 281 279 283 288 286 274 261 257 259 262 262 259 261 264 256 256 251 251 253 254 255 255 251 245 241 239 241 240 239 241 241 240 246 244 240 237 236 234 232 233 230 226 227 220 206 202 192 191
279 271 275 282 286 289 281 267 261 261 263 261 262 262 265 256 254 255 253 251 254 256 256 252 244 239 239 240 239 237 237 237 239 238 243 241 241 237 236 234 231 232 226 225 225 210 208 197 195
277 275 282 285 282 279 276 268 262 260 265 267 270 259 251 259 261 261 259 258 257 256 255 255 252 244 240 238 238 236 233 234 234 239 241 241 242 239 237 235 230 231 229 224 224 217 211 202 199
272 274 281 279 274 274 273 271 268 264 261 272 265 256 258 260 265 267 262 257 255 251 248 251 252 250 245 241 239 234 234 232 236 239 239 241 237 241 240 238 234 230 231 227 224 218 213 206 202
272 275 277 278 273 274 273 272 271 263 266 269 257 255 256 255 259 263 258 252 247 244 245 246 247 248 246 242 240 238 232 233 235 239 243 241 240 238 240 240 237 232 233 230 230 220 218 212 207
270 273 270 275 271 272 267 269 273 268 272 251 254 253 251 250 256 263 261 255 245 247 247 248 247 247 248 246 241 238 235 230 233 236 238 242 240 241 239 240 237 233 234 230 232 226 219 216 214
273 277 278 275 274 273 268 269 262 265 262 253 250 253 253 259 261 260 261 258 253 250 245 245 247 245 245 245 242 240 239 236 233 234 235 241 241 239 241 239 239 233 233 232 231 229 224 217 217
273 279 276 272 278 275 275 268 260 264 243 253 257 253 259 262 264 265 259 255 255 250 240 240 244 244 244 245 244 238 238 237 233 233 233 234 241 238 241 239 239 235 232 233 229 226 225 218 216
282 282 283 285 283 284 279 264 264 231 251 250 247 251 263 263 267 268 259 253 250 252 251 247 242 239 238 240 244 244 241 241 238 235 233 233 234 236 238 240 237 235 231 230 231 228 226 222 218
279 277 282 288 284 264 255 264 251 248 254 262 267 259 257 258 264 262 255 255 255 251 248 243 241 244 242 240 241 245 245 241 240 238 235 233 231 240 244 233 238 234 233 229 229 230 228 224 222
290 282 284 279 270 235 242 252 257 257 276 275 271 259 259 259 261 254 253 258 255 253 245 240 240 247 248 246 243 242 244 242 242 242 240 235 233 235 242 237 234 231 232 231 227 228 229 226 222
283 277 274 270 274 272 266 270 266 271 265 271 275 272 256 256 253 245 251 257 259 254 243 237 240 244 243 245 246 246 247 245 244 244 242 241 236 231 240 245 232 231 230 232 231 227 228 227 222
295 295 281 282 291 282 292 283 280 278 270 268 275 270 253 243 237 240 247 250 250 251 245 237 236 240 244 247 246 245 247 246 245 246 244 242 238 240 245 243 232 225 228 229 229 227 226 227 225
295 289 289 287 301 292 295 287 289 274 261 272 279 259 226 219 227 234 230 237 243 243 245 246 246 248 250 249 250 248 247 246 243 245 246 247 247 246 256 241 250 236 222 223 231 230 227 228 228
293 294 297 289 285 274 276 283 279 266 264 275 243 217 212 221 226 226 229 239 242 243 241 245 250 250 251 251 253 252 247 246 243 241 242 244 249 249 254 253 257 244 228 218 223 229 230 228 230
287 297 289 281 270 264 259 263 267 246 240 235 226 224 223 223 216 217 224 228 231 234 237 243 250 256 257 253 252 254 247 243 239 240 244 244 246 249 250 257 259 259 248 220 217 225 227 227 228
293 284 277 267 255 246 251 231 233 242 239 229 221 214 214 211 206 200 198 207 224 234 243 248 257 257 258 261 258 256 246 238 238 242 247 249 250 252 253 248 246 246 242 234 214 220 225 226 226
298 317 287 280 212 248 232 217 222 243 202 201 190 187 189 188 184 179 167 157 171 228 244 251 258 259 261 262 263 258 245 233 239 243 249 250 249 242 253 244 229 231 240 245 216 216 220 221 223
306 291 260 279 226 313 274 231 151 188 179 168 161 159 156 158 163 163 161 183 211 243 249 262 263 254 263 268 274 259 247 238 238 242 250 249 242 227 235 234 219 226 241 255 214 211 216 219 221
308 298 300 285 278 244 222 153 174 192 186 184 182 162 158 146 133 125 126 138 142 231 243 254 271 261 257 271 279 272 254 240 239 240 248 254 247 248 235 235 226 218 225 258 209 206 213 216 217
299 293 312 275 273 244 228 168 228 184 179 179 183 179 146 132 121 90 75 81 219 274 285 299 291 287 263 270 278 270 262 259 254 245 247 251 263 256 247 226 231 222 227 220 202 208 212 214 214
301 305 249 272 289 307 295 91 95 154 175 183 179 192 199 196 167 126 72 39 87 235 310 312 295 287 282 273 278 263 257 263 256 249 250 263 253 254 239 225 245 231 232 227 205 206 210 214 213
141 66 77 43 335 315 283 110 242 87 70 353 323 323 316 322 334 349 56 79 358 336 315 308 299 289 284 273 271 277 260 258 257 259 275 249 251 239 249 236 229 224 227 225 207 205 206 210 213